Radiation Dose at Monitoring Post of Fukushima Daini Nuclear Power Station
Date,Time,MP-1(microSv/h),MP-2(microSv/h),MP-3(microSv/h),MP-4(microSv/h),MP-5(microSv/h),MP-6(microSv/h),MP-7(microSv/h),Wind Direction,Wind Velocity(m/s),Rain
2018/09/02,00:00,0.307,0.189,0.311,0.299,0.283,0.153,0.093,north-northeast,1.4,No
2018/09/02,00:10,0.309,0.190,0.308,0.296,0.280,0.154,0.094,north-northeast,1.7,No
2018/09/02,00:20,0.309,0.191,0.312,0.298,0.282,0.153,0.094,north-northeast,5.4,No
2018/09/02,00:30,0.308,0.190,0.309,0.298,0.283,0.153,0.094,north-northwest,3.5,No
2018/09/02,00:40,0.309,0.191,0.311,0.296,0.280,0.154,0.094,north-northwest,3.1,No
2018/09/02,00:50,0.307,0.189,0.309,0.299,0.284,0.153,0.093,northwest,2.6,No
2018/09/02,01:00,0.309,0.191,0.308,0.296,0.281,0.153,0.094,-,CALM,No
2018/09/02,01:10,0.309,0.189,0.311,0.300,0.281,0.152,0.094,north-northwest,1.4,No
2018/09/02,01:20,0.308,0.191,0.308,0.297,0.282,0.153,0.094,northwest,1.0,No
2018/09/02,01:30,0.311,0.191,0.311,0.297,0.280,0.153,0.094,north,1.4,No
2018/09/02,01:40,0.308,0.190,0.309,0.299,0.284,0.152,0.093,north-northwest,2.7,No
2018/09/02,01:50,0.310,0.190,0.310,0.297,0.281,0.153,0.094,northwest,1.7,No
2018/09/02,02:00,0.310,0.190,0.310,0.299,0.281,0.153,0.093,north-northwest,2.5,No
2018/09/02,02:10,0.309,0.191,0.309,0.297,0.282,0.154,0.094,north,4.1,No
2018/09/02,02:20,0.309,0.191,0.310,0.299,0.280,0.154,0.094,north,4.6,No
2018/09/02,02:30,0.308,0.191,0.307,0.299,0.284,0.152,0.094,north,4.8,No
2018/09/02,02:40,0.311,0.191,0.310,0.296,0.281,0.155,0.095,north-northwest,4.3,No
2018/09/02,02:50,0.310,0.192,0.309,0.300,0.281,0.153,0.093,north,3.8,No
2018/09/02,03:00,0.308,0.191,0.310,0.296,0.282,0.153,0.095,north-northwest,3.7,No
2018/09/02,03:10,0.312,0.191,0.310,0.298,0.279,0.153,0.094,north-northwest,3.4,No
2018/09/02,03:20,0.307,0.193,0.307,0.297,0.282,0.152,0.094,north-northwest,3.3,No
2018/09/02,03:30,0.311,0.190,0.311,0.296,0.281,0.154,0.095,north,4.2,No
2018/09/02,03:40,0.307,0.191,0.309,0.299,0.279,0.153,0.094,north,4.4,No
2018/09/02,03:50,0.308,0.190,0.310,0.298,0.283,0.153,0.095,north,4.3,No
2018/09/02,04:00,0.310,0.190,0.308,0.298,0.280,0.153,0.094,north,4.6,No
2018/09/02,04:10,0.308,0.191,0.309,0.297,0.281,0.152,0.094,north,4.3,No
2018/09/02,04:20,0.309,0.191,0.311,0.297,0.282,0.153,0.094,north,4.0,No
2018/09/02,04:30,0.308,0.190,0.307,0.298,0.281,0.153,0.094,north-northwest,3.2,No
2018/09/02,04:40,0.309,0.190,0.310,0.296,0.282,0.152,0.095,north-northwest,4.0,No
2018/09/02,04:50,0.311,0.190,0.308,0.298,0.280,0.153,0.094,north-northwest,3.6,No
2018/09/02,05:00,0.308,0.190,0.308,0.297,0.280,0.153,0.094,north,3.5,No
2018/09/02,05:10,0.311,0.190,0.310,0.297,0.283,0.153,0.094,north-northwest,3.3,No
2018/09/02,05:20,0.309,0.191,0.308,0.298,0.280,0.153,0.094,north-northwest,2.9,No
2018/09/02,05:30,0.310,0.189,0.310,0.296,0.281,0.152,0.094,north,2.7,No
2018/09/02,05:40,0.309,0.191,0.309,0.300,0.282,0.154,0.094,north,3.3,No
2018/09/02,05:50,0.308,0.190,0.310,0.297,0.280,0.154,0.095,north,3.0,No
2018/09/02,06:00,0.311,0.191,0.309,0.297,0.283,0.152,0.094,north,4.7,No
2018/09/02,06:10,0.310,0.190,0.308,0.299,0.280,0.153,0.094,north,4.6,No
2018/09/02,06:20,0.310,0.191,0.310,0.296,0.281,0.154,0.094,north,4.6,No
2018/09/02,06:30,0.310,0.191,0.308,0.298,0.283,0.153,0.094,north,3.7,No
2018/09/02,06:40,0.309,0.191,0.310,0.299,0.279,0.153,0.094,north,4.3,No
2018/09/02,06:50,0.310,0.192,0.309,0.298,0.281,0.153,0.095,north-northwest,2.3,No
2018/09/02,07:00,0.310,0.190,0.308,0.299,0.282,0.153,0.095,north,2.1,No
2018/09/02,07:10,0.307,0.190,0.311,0.296,0.280,0.155,0.094,north-northwest,2.2,No
2018/09/02,07:20,0.311,0.191,0.310,0.299,0.283,0.153,0.095,north-northwest,3.3,No
2018/09/02,07:30,0.311,0.190,0.309,0.299,0.282,0.153,0.093,north,3.9,No
2018/09/02,07:40,0.309,0.192,0.312,0.296,0.279,0.154,0.094,north-northwest,5.6,No
2018/09/02,07:50,0.313,0.192,0.307,0.300,0.282,0.154,0.094,north,5.7,No
2018/09/02,08:00,0.309,0.190,0.311,0.298,0.282,0.152,0.094,north-northwest,4.6,No
2018/09/02,08:10,0.309,0.192,0.311,0.295,0.280,0.154,0.095,north-northwest,4.5,No
2018/09/02,08:20,0.313,0.192,0.308,0.300,0.281,0.153,0.095,north-northwest,4.3,No
2018/09/02,08:30,0.310,0.189,0.311,0.298,0.282,0.153,0.094,north,4.7,No
2018/09/02,08:40,0.307,0.192,0.309,0.296,0.280,0.154,0.094,north-northwest,4.3,No
2018/09/02,08:50,0.311,0.191,0.308,0.299,0.280,0.152,0.095,north,4.4,No
2018/09/02,09:00,0.309,0.190,0.311,0.298,0.284,0.152,0.095,north,3.5,No
2018/09/02,09:10,0.309,0.191,0.311,0.296,0.282,0.153,0.093,north,4.7,No
2018/09/02,09:20,0.312,0.191,0.308,0.301,0.279,0.154,0.094,north,4.6,No
2018/09/02,09:30,0.309,0.190,0.311,0.298,0.284,0.153,0.094,north,3.3,No
2018/09/02,09:40,0.307,0.192,0.310,0.295,0.282,0.153,0.093,north,3.6,No
2018/09/02,09:50,0.312,0.192,0.307,0.299,0.279,0.154,0.094,north-northwest,4.0,No
2018/09/02,10:00,0.311,0.191,0.310,0.296,0.281,0.153,0.094,north,4.7,No
2018/09/02,10:10,0.308,0.191,0.312,0.296,0.284,0.152,0.093,north-northwest,3.9,No
2018/09/02,10:20,0.310,0.193,0.308,0.298,0.281,0.154,0.094,north,4.9,Yes
2018/09/02,10:30,0.311,0.192,0.308,0.300,0.280,0.154,0.095,north-northwest,3.9,Yes
2018/09/02,10:40,0.309,0.191,0.311,0.297,0.281,0.154,0.094,north-northwest,4.0,No
2018/09/02,10:50,0.307,0.192,0.308,0.298,0.285,0.153,0.094,north-northwest,3.0,Yes
2018/09/02,11:00,0.311,0.192,0.307,0.301,0.281,0.154,0.094,north-northwest,3.3,Yes
2018/09/02,11:10,0.311,0.191,0.311,0.299,0.280,0.154,0.094,north-northwest,2.5,No
2018/09/02,11:20,0.309,0.189,0.309,0.297,0.282,0.153,0.095,north-northwest,2.9,No
2018/09/02,11:30,0.308,0.192,0.308,0.300,0.284,0.153,0.093,north,3.1,No
2018/09/02,11:40,0.312,0.192,0.310,0.299,0.282,0.154,0.094,north,3.0,No
2018/09/02,11:50,0.311,0.190,0.312,0.297,0.279,0.154,0.095,north,4.3,No
2018/09/02,12:00,0.308,0.189,0.310,0.297,0.279,0.154,0.094,north,3.9,No
2018/09/02,12:10,0.307,0.190,0.308,0.300,0.278,0.152,0.094,north,3.2,No
2018/09/02,12:20,0.312,0.192,0.308,0.298,0.283,0.154,0.094,north,3.5,No
2018/09/02,12:30,0.312,0.191,0.312,0.296,0.283,0.153,0.093,north,4.2,No
2018/09/02,12:40,0.309,0.189,0.309,0.295,0.281,0.153,0.095,north,4.4,No
2018/09/02,12:50,0.306,0.189,0.308,0.298,0.279,0.155,0.094,north,5.0,No
2018/09/02,13:00,0.310,0.190,0.308,0.299,0.279,0.153,0.093,north-northeast,5.2,No
2018/09/02,13:10,0.312,0.191,0.310,0.299,0.278,0.153,0.093,north,3.9,No
2018/09/02,13:20,0.310,0.191,0.308,0.298,0.283,0.152,0.093,north,3.8,No
2018/09/02,13:30,0.308,0.191,0.307,0.295,0.283,0.153,0.094,north,3.5,Yes
2018/09/02,13:40,0.309,0.189,0.305,0.299,0.283,0.153,0.094,north,2.9,No
2018/09/02,13:50,0.314,0.189,0.310,0.299,0.281,0.154,0.093,north,2.4,No
2018/09/02,14:00,0.311,0.192,0.310,0.299,0.280,0.154,0.093,north-northeast,2.9,No
2018/09/02,14:10,0.309,0.192,0.309,0.297,0.278,0.153,0.093,north-northeast,3.1,No
2018/09/02,14:20,0.309,0.192,0.308,0.298,0.283,0.153,0.095,north-northeast,3.7,No
2018/09/02,14:30,0.314,0.191,0.310,0.301,0.284,0.153,0.094,north-northeast,2.5,No
2018/09/02,14:40,0.312,0.191,0.313,0.299,0.281,0.153,0.094,north-northeast,2.3,No
2018/09/02,14:50,0.309,0.192,0.309,0.297,0.280,0.154,0.093,north-northeast,2.5,No
2018/09/02,15:00,0.310,0.191,0.309,0.297,0.283,0.153,0.093,north-northeast,1.3,No
2018/09/02,15:10,0.313,0.190,0.312,0.301,0.284,0.154,0.094,north,1.9,No
2018/09/02,15:20,0.311,0.191,0.312,0.298,0.281,0.154,0.093,north,1.1,No
2018/09/02,15:30,0.307,0.192,0.308,0.297,0.280,0.155,0.093,-,CALM,No
2018/09/02,15:40,0.311,0.191,0.308,0.300,0.282,0.153,0.094,north,0.9,No
2018/09/02,15:50,0.313,0.190,0.312,0.300,0.284,0.154,0.094,north-northwest,0.9,No
2018/09/02,16:00,0.309,0.193,0.312,0.298,0.283,0.154,0.093,north-northwest,1.5,No
2018/09/02,16:10,0.309,0.191,0.309,0.297,0.278,0.155,0.094,north,2.0,No
2018/09/02,16:20,0.314,0.190,0.310,0.302,0.283,0.153,0.094,north,1.4,No
2018/09/02,16:30,0.311,0.191,0.312,0.298,0.284,0.153,0.093,north-northwest,0.9,No
2018/09/02,16:40,0.309,0.192,0.309,0.297,0.281,0.155,0.094,north-northwest,1.0,No
2018/09/02,16:50,0.311,0.190,0.308,0.300,0.279,0.153,0.094,north-northwest,1.6,No
2018/09/02,17:00,0.312,0.190,0.312,0.299,0.283,0.153,0.094,north-northwest,1.7,Yes
2018/09/02,17:10,0.311,0.194,0.311,0.299,0.283,0.154,0.094,north-northwest,1.7,Yes
2018/09/02,17:20,0.309,0.192,0.308,0.298,0.280,0.155,0.095,north,1.3,No
2018/09/02,17:30,0.313,0.191,0.313,0.300,0.284,0.154,0.096,northeast,1.8,Yes
2018/09/02,17:40,0.313,0.194,0.313,0.299,0.285,0.155,0.096,northeast,2.5,Yes
2018/09/02,17:50,0.309,0.193,0.310,0.300,0.282,0.157,0.095,northeast,2.6,No
2018/09/02,18:00,0.313,0.192,0.314,0.301,0.282,0.154,0.096,north-northeast,5.0,Yes
2018/09/02,18:10,0.312,0.194,0.310,0.299,0.284,0.155,0.097,northeast,2.7,Yes
2018/09/02,18:20,0.309,0.192,0.309,0.299,0.281,0.156,0.097,northeast,1.7,Yes
2018/09/02,18:30,0.313,0.193,0.313,0.299,0.281,0.154,0.096,-,CALM,No
2018/09/02,18:40,0.311,0.193,0.309,0.298,0.284,0.154,0.096,north-northeast,1.2,Yes
2018/09/02,18:50,0.310,0.192,0.311,0.300,0.279,0.156,0.097,north,1.7,Yes
2018/09/02,19:00,0.313,0.194,0.311,0.299,0.284,0.155,0.097,north-northwest,2.7,Yes
2018/09/02,19:10,0.309,0.194,0.308,0.297,0.283,0.157,0.097,north-northwest,3.2,Yes
2018/09/02,19:20,0.311,0.193,0.311,0.301,0.280,0.157,0.099,north-northwest,4.0,Yes
2018/09/02,19:30,0.311,0.194,0.310,0.298,0.284,0.156,0.098,north-northwest,3.7,Yes
2018/09/02,19:40,0.308,0.193,0.309,0.297,0.283,0.157,0.097,north,4.3,Yes
2018/09/02,19:50,0.311,0.193,0.312,0.300,0.282,0.157,0.097,north-northwest,2.8,No
2018/09/02,20:00,0.310,0.193,0.309,0.298,0.284,0.156,0.097,north-northwest,2.8,Yes
2018/09/02,20:10,0.307,0.192,0.309,0.297,0.284,0.155,0.096,north-northwest,3.3,Yes
2018/09/02,20:20,0.311,0.194,0.311,0.300,0.278,0.157,0.096,north-northwest,2.9,Yes
2018/09/02,20:30,0.309,0.194,0.307,0.296,0.282,0.155,0.097,west-northwest,2.6,Yes
2018/09/02,20:40,0.308,0.194,0.309,0.297,0.280,0.155,0.098,southwest,2.3,Yes
2018/09/02,20:50,0.309,0.195,0.308,0.294,0.278,0.154,0.099,north-northeast,2.6,Yes
2018/09/02,21:00,0.303,0.193,0.302,0.292,0.285,0.154,0.100,north-northeast,0.6,Yes
2018/09/02,21:10,0.309,0.195,0.307,0.296,0.282,0.156,0.102,north,1.6,Yes
2018/09/02,21:20,0.309,0.195,0.306,0.295,0.283,0.156,0.101,north,1.5,Yes
2018/09/02,21:30,0.307,0.194,0.306,0.295,0.285,0.153,0.100,north-northwest,1.2,Yes
2018/09/02,21:40,0.309,0.194,0.307,0.296,0.281,0.155,0.100,northwest,1.8,Yes
2018/09/02,21:50,0.305,0.193,0.304,0.295,0.284,0.154,0.099,north-northwest,2.5,Yes
2018/09/02,22:00,0.305,0.194,0.307,0.294,0.282,0.152,0.100,northwest,2.9,Yes
2018/09/02,22:10,0.307,0.193,0.305,0.297,0.280,0.155,0.101,north-northwest,2.7,Yes
2018/09/02,22:20,0.305,0.194,0.305,0.294,0.285,0.154,0.102,north-northwest,3.7,Yes
2018/09/02,22:30,0.308,0.195,0.304,0.291,0.279,0.154,0.103,west,6.8,Yes
2018/09/02,22:40,0.303,0.195,0.302,0.288,0.282,0.158,0.105,north-northwest,3.9,Yes
2018/09/02,22:50,0.307,0.199,0.309,0.293,0.288,0.157,0.105,north-northwest,3.8,Yes
2018/09/02,23:00,0.309,0.197,0.307,0.297,0.285,0.156,0.103,north-northwest,3.7,No
2018/09/02,23:10,0.305,0.195,0.308,0.295,0.286,0.155,0.101,northwest,2.9,No
2018/09/02,23:20,0.307,0.195,0.309,0.297,0.284,0.153,0.100,north-northwest,2.7,No
2018/09/02,23:30,0.305,0.192,0.307,0.296,0.281,0.152,0.099,north-northwest,2.7,No
2018/09/02,23:40,0.301,0.191,0.306,0.294,0.284,0.152,0.097,north-northwest,3.2,No
2018/09/02,23:50,0.303,0.192,0.306,0.296,0.282,0.150,0.096,north-northwest,2.6,No
